Location: Unspecified
(33.6682°S, 0.0000°E)
Time: 16:20:23
(UTC+00:00)

Tiros 1 despin weight - Pass Details

Date: 25 June 2019
Orbit: 594 x 642 km, 48.2° (Epoch: 21 August)

Event Time Altitude Azimuth Distance (km) Brightness Sun altitude
Rises 16:05:49 0° 232° (SW) 2,970 ? 8.8°
Reaches altitude 10° 16:08:11 10° 230° (SW) 2,056 ? 8.4°
Maximum altitude 16:12:56 82° 143° (SE) 657 ? 7.6°
Drops below altitude 10° 16:17:38 10° 54° (NE) 2,026 ? 6.8°
Sets 16:19:56 0° 53° (NE) 2,924 ? 6.4°
